Change the Weather History Date:

Tuesday, November 20, 2012

  Actual Average Record
Temperature  
Mean Temperature 59 °F -  
Max Temperature 67 °F 60 °F 71 °F (2005)
Min Temperature 51 °F 42 °F 32 °F (2000)
Degree Days  
Heating Degree Days 6    
Growing Degree Days 9 (Base 50)    
Moisture  
Dew Point 56 °F    
Average Humidity 87    
Maximum Humidity 100    
Minimum Humidity 64    
Precipitation  
Precipitation 0.18 in - - ()
Sea Level Pressure  
Sea Level Pressure 30.07 in    
Wind  
Wind Speed 8 mph (SSW)    
Max Wind Speed 16 mph    
Max Gust Speed -    
Visibility 8 miles    
Events Rain    
Averages and records for this station are not official NWS values.
T = Trace of Precipitation, MM = Missing Value Source: NWS Daily Summary

Daily Weather History Graph

Daily Weather History Graph

Search for Another Location

Airport or City:

Trip Planner

Search our weather history database for the weather conditions in past years. The results will help you decide how hot, cold, wet, or windy it might be!

Date:

Astronomy

Nov. 20, 2012 Rise Set
Actual Time 6:55 AM PST 4:51 PM PST
Civil Twilight 6:26 AM PST 5:20 PM PST
Nautical Twilight 5:54 AM PST 5:52 PM PST
Astronomical Twilight 5:22 AM PST 6:24 PM PST
Moon 12:35 PM PST (11/20) No Moon Set
Length of Visible Light 10h 53m
Length of Day
9h 56m
First Quarter, 52% of the Moon is Illuminated
Nov 20
First Quarter
Nov 28
Full
Dec 6
Last Quarter
Dec 13
New
Dec 19
First Quarter

Hourly Weather History & Observations

Time (PST) Temp. Dew Point Humidity Pressure Visibility Wind Dir Wind Speed Gust Speed Precip Events Conditions
12:58 AM 52.5 °F 48.7 °F 87% 30.14 in 10.0 mi South 4.6 mph - N/A   Scattered Clouds
1:58 AM 52.0 °F 51.1 °F 97% 30.14 in 10.0 mi South 6.9 mph - N/A   Overcast
2:58 AM 53.1 °F 50.5 °F 91% 30.13 in 10.0 mi ENE 4.6 mph - N/A   Overcast
3:58 AM 52.2 °F 51.8 °F 99% 30.11 in 10.0 mi ENE 3.5 mph - N/A   Overcast
4:08 AM 51.8 °F 51.8 °F 100% 30.12 in 9.0 mi ENE 2.3 mph - N/A   Overcast
4:58 AM 52.3 °F 52.2 °F 99% 30.11 in 10.0 mi East 4.6 mph - N/A   Overcast
5:58 AM 52.2 °F 52.0 °F 99% 30.14 in 9.0 mi East 4.6 mph - N/A   Overcast
6:38 AM 51.8 °F 51.8 °F 100% 30.12 in 10.0 mi East 6.9 mph - N/A   Scattered Clouds
6:58 AM 52.0 °F 51.8 °F 99% 30.14 in 10.0 mi SE 6.9 mph - N/A   Mostly Cloudy
7:58 AM 53.8 °F 52.0 °F 94% 30.13 in 10.0 mi SSE 5.8 mph - N/A   Mostly Cloudy
8:58 AM 57.6 °F 51.6 °F 81% 30.13 in 10.0 mi SSE 10.4 mph - N/A   Overcast
9:03 AM 57.2 °F 51.8 °F 82% 30.11 in 10.0 mi SSE 11.5 mph - N/A   Overcast
9:23 AM 59.0 °F 50.0 °F 72% 30.11 in 10.0 mi SSE 6.9 mph - N/A   Mostly Cloudy
9:58 AM 61.2 °F 52.5 °F 73% 30.13 in 10.0 mi SSE 10.4 mph - N/A   Overcast
10:58 AM 63.9 °F 55.0 °F 73% 30.12 in 10.0 mi SSE 10.4 mph - N/A   Overcast
11:58 AM 64.9 °F 55.4 °F 71% 30.09 in 10.0 mi South 12.7 mph - N/A   Overcast
12:17 PM 66.2 °F 55.4 °F 68% 30.06 in 10.0 mi SSW 15.0 mph - N/A   Mostly Cloudy
12:58 PM 67.1 °F 54.5 °F 64% 30.07 in 10.0 mi South 15.0 mph - N/A   Mostly Cloudy
1:58 PM 65.7 °F 54.9 °F 68% 30.05 in 10.0 mi South 16.1 mph - N/A   Overcast
2:43 PM 64.4 °F 55.4 °F 73% 30.03 in 10.0 mi SSW 10.4 mph - N/A   Overcast
2:45 PM 64.4 °F 55.4 °F 73% 30.03 in 10.0 mi SSW 10.4 mph - N/A   Overcast
2:50 PM 64.4 °F 57.2 °F 77% 30.03 in 10.0 mi SSW 9.2 mph - N/A   Light Drizzle
2:55 PM 64.4 °F 57.2 °F 77% 30.03 in 10.0 mi SSW 8.1 mph - N/A Rain Light Rain
2:58 PM 62.6 °F 57.2 °F 82% 30.05 in 10.0 mi SSW 10.4 mph - 0.00 in Rain Light Rain
3:02 PM 64.4 °F 57.2 °F 77% 30.03 in 10.0 mi SSW 12.7 mph - N/A   Overcast
3:58 PM 63.3 °F 57.2 °F 80% 30.04 in 10.0 mi SW 9.2 mph - 0.00 in   Overcast
4:38 PM 62.6 °F 57.2 °F 82% 30.02 in 10.0 mi SSW 10.4 mph - N/A   Overcast
4:53 PM 62.6 °F 57.2 °F 82% 30.01 in 10.0 mi SSW 10.4 mph - N/A   Overcast
4:58 PM 62.1 °F 57.4 °F 85% 30.03 in 10.0 mi SSW 9.2 mph - N/A   Overcast
5:58 PM 61.7 °F 56.8 °F 84% 30.04 in 10.0 mi SSE 8.1 mph - N/A   Overcast
6:58 PM 62.1 °F 55.6 °F 79% 30.04 in 10.0 mi South 11.5 mph - N/A   Mostly Cloudy
6:59 PM 62.6 °F 55.4 °F 77% 30.02 in 10.0 mi South 11.5 mph - N/A Rain Light Rain
7:08 PM 62.6 °F 55.4 °F 77% 30.02 in 10.0 mi SSW 11.5 mph - N/A   Overcast
7:58 PM 61.7 °F 55.4 °F 80% 30.04 in 10.0 mi South 11.5 mph - 0.00 in   Overcast
8:53 PM 60.8 °F 55.4 °F 82% 30.02 in 10.0 mi South 11.5 mph - N/A Rain Light Rain
8:58 PM 61.3 °F 55.6 °F 81% 30.04 in 10.0 mi South 11.5 mph - 0.00 in Rain Light Rain
9:04 PM 60.8 °F 55.4 °F 82% 30.02 in 10.0 mi South 12.7 mph - N/A   Overcast
9:06 PM 60.8 °F 55.4 °F 82% 30.01 in 10.0 mi South 12.7 mph - N/A Rain Light Rain
9:58 PM 60.3 °F 56.5 °F 87% 30.06 in 7.0 mi WSW 11.5 mph - 0.01 in Rain Light Rain
10:04 PM 59.0 °F 59.0 °F 100% 30.05 in 4.0 mi WNW 13.8 mph - N/A Rain Rain
10:06 PM 59.0 °F 59.0 °F 100% 30.05 in 4.0 mi WNW 12.7 mph - N/A Rain Light Rain
10:11 PM 59.0 °F 59.0 °F 100% 30.05 in 4.0 mi WNW 13.8 mph - N/A Rain Rain
10:26 PM 59.0 °F 59.0 °F 100% 30.05 in 2.5 mi West 8.1 mph - N/A Rain Rain
10:31 PM 59.0 °F 59.0 °F 100% 30.05 in 3.0 mi West 8.1 mph - N/A Rain Light Rain
10:46 PM 59.0 °F 59.0 °F 100% 30.05 in 9.0 mi West 6.9 mph - N/A Rain Light Rain
10:51 PM 59.0 °F 59.0 °F 100% 30.06 in 4.0 mi West 9.2 mph - N/A Rain Light Rain
10:56 PM 59.0 °F 59.0 °F 100% 30.06 in 1.8 mi West 8.1 mph - N/A Rain Rain
10:58 PM 59.0 °F 59.0 °F 100% 30.08 in 1.8 mi West 8.1 mph - 0.07 in Rain Rain
11:03 PM 59.0 °F 59.0 °F 100% 30.06 in 1.5 mi West 10.4 mph - N/A Rain Rain
11:08 PM 59.0 °F 59.0 °F 100% 30.06 in 1.8 mi WSW 9.2 mph - N/A Rain Rain
11:28 PM 59.0 °F 59.0 °F 100% 30.05 in 2.5 mi South 8.1 mph - N/A Rain Rain
11:33 PM 59.0 °F 59.0 °F 100% 30.05 in 4.0 mi SSW 8.1 mph - N/A Rain Light Rain
11:58 PM 58.3 °F 58.3 °F 100% 30.07 in 9.0 mi South 6.9 mph - 0.10 in Rain Light Rain